Location: Clegg Observatory
(38.9178°N, 78.6069°W)
Time: 02:40:14
(UTC-04:00)

Cosmos 1151 Rocket - Visible Passes

Search period start: 05 May 2016 00:00
Search period end: 15 May 2016 00:00
Orbit: 594 x 615 km, 82.5° (Epoch: 04 May)

Date Brightness Start Highest point End Pass type
(mag) Time Alt. Az. Time Alt. Az. Time Alt. Az.
05 May 6.2 03:27:40 10° ENE 03:28:26 10° ENE 03:29:13 10° E visible
05 May 3.0 05:02:10 10° NNW 05:06:27 62° W 05:10:41 10° S visible
06 May 5.7 03:38:38 10° NNE 03:41:33 17° ENE 03:44:27 10° ESE visible
06 May 3.7 05:15:17 10° NNW 05:19:13 35° W 05:23:07 10° SSW visible
07 May 4.9 03:50:48 10° NNE 03:54:35 29° ENE 03:58:19 10° SE visible
07 May 4.4 05:28:43 10° NW 05:31:56 21° W 05:35:08 10° SW visible
08 May 3.9 04:03:19 10° N 04:07:33 49° E 04:11:28 11° SSE visible
09 May 2.9 04:16:05 10° N 04:20:26 87° E 04:23:28 19° S visible
10 May 5.9 02:53:41 10° NE 02:55:20 12° ENE 02:56:58 10° E visible
10 May 3.1 04:29:02 10° NNW 04:33:15 53° W 04:35:35 24° SSW visible
11 May 5.4 03:05:14 10° NNE 03:08:25 20° ENE 03:10:57 13° ESE visible
11 May 3.9 04:42:14 10° NNW 04:46:00 30° W 04:47:46 22° SW visible
12 May 4.5 03:17:31 10° NNE 03:21:26 32° ENE 03:23:12 23° ESE visible
12 May 4.5 04:55:46 10° NW 04:58:43 18° W 05:00:01 16° WSW visible
13 May 3.5 03:30:07 10° N 03:34:22 56° E 03:35:30 42° SE visible
13 May 5.1 05:10:33 10° WNW 05:11:20 10° W 05:12:06 10° W visible
14 May 2.8 03:42:55 10° N 03:47:14 82° W 03:47:52 64° S visible
